| time (UTC) | temp F | wind direction | speed MPH | gust MPH | rain 1hr in | rain 24hr in | rain mn in | humidity % | barometer mb |
| 20260507013735 | 76 | 357 | 0.0 | 1.0 | 0.00 | 0.02 | 0.02 | 82 | 1006.0 |
| 20260507013240 | 76 | 354 | 0.0 | 1.0 | 0.00 | 0.02 | 0.02 | 81 | 1005.8 |
| 20260507012737 | 77 | 180 | 0.0 | 0.0 | 0.00 | 0.02 | 0.02 | 81 | 1005.8 |
| 20260507012237 | 77 | 348 | 0.0 | 0.0 | 0.00 | 0.02 | 0.02 | 81 | 1005.6 |
| 20260507011735 | 77 | 337 | 0.0 | 0.0 | 0.00 | 0.02 | 0.02 | 80 | 1005.6 |
| 20260507011501 | 78 | 327 | 0.0 | 0.0 | 0.00 | 0.02 | 0.02 | 80 | 1005.5 |
| 20260507011243 | 78 | 327 | 0.0 | 0.0 | 0.00 | 0.02 | 0.02 | 80 | 1005.5 |
| 20260507010735 | 78 | 306 | 0.0 | 0.0 | 0.00 | 0.02 | 0.02 | 80 | 1005.3 |
| 20260507010237 | 78 | 324 | 0.0 | 0.0 | 0.00 | 0.02 | 0.02 | 80 | 1005.3 |
| 20260507005736 | 79 | 217 | 0.0 | 1.0 | 0.00 | 0.02 | 0.02 | 79 | 1005.3 |
| 20260507005237 | 80 | 20 | 0.0 | 1.0 | 0.00 | 0.02 | 0.02 | 78 | 1005.2 |
| 20260507004735 | 80 | 312 | 0.0 | 0.0 | 0.00 | 0.02 | 0.02 | 78 | 1005.1 |
| 20260507004236 | 81 | 17 | 0.0 | 0.0 | 0.00 | 0.02 | 0.02 | 78 | 1004.9 |
| 20260507003733 | 81 | 303 | 0.0 | 0.0 | 0.00 | 0.02 | 0.02 | 77 | 1004.8 |
| 20260507003458 | 82 | 309 | 0.0 | 0.0 | 0.00 | 0.02 | 0.02 | 78 | 1004.7 |
| 20260507003342 | 82 | 309 | 0.0 | 0.0 | 0.00 | 0.02 | 0.02 | 78 | 1004.7 |
| 20260507002734 | 83 | 309 | 0.0 | 0.0 | 0.00 | 0.02 | 0.02 | 81 | 1004.6 |
| 20260507002456 | 83 | 65 | 0.0 | 0.0 | 0.00 | 0.02 | 0.02 | 84 | 1004.4 |
| 20260507002342 | 83 | 65 | 0.0 | 0.0 | 0.00 | 0.02 | 0.02 | 84 | 1004.4 |
| 20260507001955 | 83 | 65 | 0.0 | 0.0 | 0.00 | 0.02 | 0.02 | 84 | 1004.2 |
| 20260507001840 | 83 | 65 | 0.0 | 0.0 | 0.00 | 0.02 | 0.02 | 84 | 1004.2 |
| 20260507001234 | 84 | 65 | 0.0 | 0.0 | 0.00 | 0.02 | 0.02 | 84 | 1004.1 |
| 20260507000731 | 84 | 65 | 0.0 | 0.0 | 0.00 | 0.02 | 0.02 | 84 | 1004.2 |
| 20260507000234 | 84 | 65 | 0.0 | 0.0 | 0.00 | 0.02 | 0.02 | 84 | 1004.1 |
| 20260506235731 | 84 | 65 | 0.0 | 0.0 | 0.00 | 0.02 | 0.02 | 84 | 1004.1 |
| 20260506235509 | 84 | 65 | 0.0 | 0.0 | 0.00 | 0.02 | 0.02 | 84 | 1004.1 |
| 20260506235343 | 84 | 65 | 0.0 | 0.0 | 0.00 | 0.02 | 0.02 | 84 | 1004.1 |
| 20260506234733 | 84 | 65 | 0.0 | 0.0 | 0.00 | 0.02 | 0.02 | 84 | 1004.1 |
| 20260506234236 | 84 | 65 | 0.0 | 0.0 | 0.00 | 0.02 | 0.02 | 84 | 1004.2 |
| 20260506233956 | 84 | 65 | 0.0 | 0.0 | 0.00 | 0.02 | 0.02 | 84 | 1004.1 |
| 20260506233840 | 84 | 65 | 0.0 | 0.0 | 0.00 | 0.02 | 0.02 | 84 | 1004.1 |
| 20260506233236 | 84 | 65 | 0.0 | 0.0 | 0.00 | 0.02 | 0.02 | 84 | 1004.0 |
| 20260506232957 | 84 | 65 | 0.0 | 0.0 | 0.00 | 0.02 | 0.02 | 84 | 1003.9 |
| 20260506232839 | 84 | 65 | 0.0 | 0.0 | 0.00 | 0.02 | 0.02 | 84 | 1003.9 |
| 20260506232235 | 84 | 65 | 0.0 | 0.0 | 0.00 | 0.02 | 0.02 | 84 | 1003.9 |
| 20260506231725 | 84 | 65 | 0.0 | 0.0 | 0.00 | 0.02 | 0.02 | 84 | 1004.0 |
| 20260506231245 | 84 | 65 | 0.0 | 0.0 | 0.00 | 0.02 | 0.02 | 84 | 1003.9 |
| 20260506230735 | 85 | 65 | 0.0 | 0.0 | 0.00 | 0.02 | 0.02 | 84 | 1003.9 |
| 20260506230234 | 85 | 65 | 0.0 | 0.0 | 0.00 | 0.02 | 0.02 | 84 | 1003.9 |
| 20260506225732 | 85 | 65 | 0.0 | 0.0 | 0.00 | 0.02 | 0.02 | 84 | 1003.9 |
| 20260506225456 | 85 | 65 | 0.0 | 0.0 | 0.00 | 0.02 | 0.02 | 84 | 1004.0 |
| 20260506225338 | 85 | 65 | 0.0 | 0.0 | 0.00 | 0.02 | 0.02 | 84 | 1004.0 |
| 20260506224730 | 85 | 65 | 0.0 | 0.0 | 0.00 | 0.02 | 0.02 | 84 | 1003.8 |
| 20260506224234 | 85 | 220 | 0.0 | 0.0 | 0.00 | 0.02 | 0.02 | 84 | 1003.9 |
| 20260506223743 | 85 | 220 | 0.0 | 0.0 | 0.00 | 0.02 | 0.02 | 83 | 1003.9 |
| 20260506223458 | 85 | 220 | 0.0 | 0.0 | 0.00 | 0.02 | 0.02 | 84 | 1003.8 |
| 20260506223341 | 85 | 220 | 0.0 | 0.0 | 0.00 | 0.02 | 0.02 | 84 | 1003.8 |
| 20260506222729 | 0 | 0.0 | 0.0 | 0.00 | 0.02 | 0.02 | 1003.7 | ||
| 20260506222234 | 85 | 220 | 0.0 | 0.0 | 0.00 | 0.02 | 0.02 | 85 | 1003.7 |
| 20260506221730 | 85 | 220 | 0.0 | 0.0 | 0.00 | 0.02 | 0.02 | 85 | 1003.6 |
| 20260506221235 | 85 | 220 | 0.0 | 0.0 | 0.00 | 0.02 | 0.02 | 84 | 1003.7 |
| 20260506220730 | 85 | 220 | 0.0 | 0.0 | 0.00 | 0.02 | 0.02 | 84 | 1003.6 |
| 20260506220231 | 85 | 220 | 0.0 | 0.0 | 0.00 | 0.02 | 0.02 | 84 | 1003.6 |
| 20260506215729 | 85 | 220 | 0.0 | 0.0 | 0.01 | 0.02 | 0.02 | 84 | 1003.6 |
| 20260506215232 | 85 | 220 | 0.0 | 0.0 | 0.02 | 0.02 | 0.02 | 83 | 1003.7 |
| 20260506214730 | 85 | 220 | 0.0 | 0.0 | 0.02 | 0.02 | 0.02 | 83 | 1003.6 |
| 20260506214448 | 85 | 220 | 0.0 | 0.0 | 0.02 | 0.02 | 0.02 | 84 | 1003.5 |
| 20260506214339 | 85 | 220 | 0.0 | 0.0 | 0.02 | 0.02 | 0.02 | 84 | 1003.5 |
| 20260506213731 | 85 | 220 | 0.0 | 0.0 | 0.02 | 0.02 | 0.02 | 82 | 1003.6 |
| 20260506213234 | 85 | 220 | 0.0 | 0.0 | 0.02 | 0.02 | 0.02 | 82 | 1003.7 |
| 20260506212730 | 85 | 220 | 0.0 | 0.0 | 0.02 | 0.02 | 0.02 | 82 | 1003.7 |
| 20260506212230 | 85 | 220 | 0.0 | 0.0 | 0.02 | 0.02 | 0.02 | 82 | 1003.8 |
| 20260506211729 | 85 | 220 | 0.0 | 0.0 | 0.02 | 0.02 | 0.02 | 82 | 1003.8 |
| 20260506211228 | 86 | 220 | 0.0 | 0.0 | 0.02 | 0.02 | 0.02 | 83 | 1003.8 |
| 20260506210727 | 86 | 220 | 0.0 | 0.0 | 0.02 | 0.02 | 0.02 | 82 | 1003.9 |
| 20260506210232 | 86 | 220 | 0.0 | 0.0 | 0.02 | 0.02 | 0.02 | 80 | 1003.9 |
| 20260506205731 | 87 | 220 | 0.0 | 0.0 | 0.01 | 0.01 | 0.01 | 77 | 1004.0 |
| 20260506205230 | 87 | 220 | 0.0 | 0.0 | 0.00 | 0.00 | 0.00 | 74 | 1004.0 |
| 20260506204949 | 87 | 220 | 0.0 | 0.0 | 0.00 | 0.00 | 0.00 | 73 | 1003.9 |
| 20260506204836 | 87 | 220 | 0.0 | 0.0 | 0.00 | 0.00 | 0.00 | 73 | 1003.9 |
| 20260506204454 | 87 | 220 | 0.0 | 0.0 | 0.00 | 0.00 | 0.00 | 73 | 1004.0 |
| 20260506204336 | 87 | 220 | 0.0 | 0.0 | 0.00 | 0.00 | 0.00 | 73 | 1004.0 |
| 20260506203729 | 87 | 220 | 0.0 | 0.0 | 0.00 | 0.00 | 0.00 | 73 | 1004.0 |
| 20260506203229 | 87 | 248 | 0.0 | 0.0 | 0.00 | 0.00 | 0.00 | 74 | 1004.1 |
| 20260506202729 | 87 | 248 | 0.0 | 0.0 | 0.00 | 0.00 | 0.00 | 73 | 1004.1 |
| 20260506202454 | 87 | 248 | 0.0 | 0.0 | 0.00 | 0.00 | 0.00 | 74 | 1004.1 |
| 20260506202338 | 87 | 248 | 0.0 | 0.0 | 0.00 | 0.00 | 0.00 | 74 | 1004.1 |
| 20260506201728 | 87 | 247 | 0.0 | 0.0 | 0.00 | 0.00 | 0.00 | 74 | 1004.2 |
| 20260506201229 | 87 | 248 | 0.0 | 0.0 | 0.00 | 0.00 | 0.00 | 73 | 1004.3 |
| 20260506200726 | 87 | 185 | 0.0 | 2.0 | 0.00 | 0.00 | 0.00 | 74 | 1004.3 |
| 20260506200230 | 87 | 185 | 0.0 | 2.0 | 0.00 | 0.00 | 0.00 | 74 | 1004.4 |
| 20260506195726 | 88 | 221 | 0.0 | 0.0 | 0.00 | 0.00 | 0.00 | 74 | 1004.4 |
| 20260506195229 | 88 | 231 | 0.0 | 0.0 | 0.00 | 0.00 | 0.00 | 72 | 1004.4 |
| 20260506194727 | 87 | 185 | 0.0 | 0.0 | 0.00 | 0.00 | 0.00 | 76 | 1004.5 |
| 20260506194227 | 87 | 197 | 0.0 | 0.0 | 0.00 | 0.00 | 0.00 | 77 | 1004.4 |
| 20260506193726 | 86 | 175 | 0.0 | 0.0 | 0.00 | 0.00 | 0.00 | 77 | 1004.5 |
| 20260506193449 | 86 | 217 | 0.0 | 1.0 | 0.00 | 0.00 | 0.00 | 78 | 1004.5 |
| 20260506193336 | 86 | 217 | 0.0 | 1.0 | 0.00 | 0.00 | 0.00 | 78 | 1004.5 |
| 20260506192727 | 85 | 186 | 0.0 | 1.0 | 0.00 | 0.00 | 0.00 | 79 | 1004.5 |
| 20260506192229 | 84 | 193 | 0.0 | 0.0 | 0.00 | 0.00 | 0.00 | 80 | 1004.6 |
| 20260506191739 | 84 | 151 | 0.0 | 0.0 | 0.00 | 0.00 | 0.00 | 80 | 1004.7 |
| 20260506191227 | 84 | 151 | 0.0 | 0.0 | 0.00 | 0.00 | 0.00 | 79 | 1004.7 |
| 20260506190725 | 84 | 151 | 0.0 | 0.0 | 0.00 | 0.00 | 0.00 | 79 | 1004.9 |
| 20260506190226 | 84 | 266 | 0.0 | 0.0 | 0.00 | 0.00 | 0.00 | 80 | 1004.9 |
| 20260506185725 | 84 | 189 | 0.0 | 1.0 | 0.00 | 0.00 | 0.00 | 80 | 1005.0 |
| 20260506185226 | 84 | 189 | 0.0 | 1.0 | 0.00 | 0.00 | 0.00 | 79 | 1005.0 |
| 20260506184725 | 84 | 190 | 0.0 | 0.0 | 0.00 | 0.00 | 0.00 | 79 | 1005.1 |
| 20260506184227 | 84 | 155 | 0.0 | 0.0 | 0.00 | 0.00 | 0.00 | 80 | 1005.1 |
| 20260506183724 | 84 | 154 | 0.0 | 0.0 | 0.00 | 0.00 | 0.00 | 80 | 1005.2 |
| 20260506183225 | 84 | 157 | 0.0 | 0.0 | 0.00 | 0.00 | 0.00 | 79 | 1005.3 |
| 20260506182953 | 84 | 151 | 0.0 | 0.0 | 0.00 | 0.00 | 0.00 | 79 | 1005.3 |
| 20260506182831 | 84 | 151 | 0.0 | 0.0 | 0.00 | 0.00 | 0.00 | 79 | 1005.3 |
| 20260506182226 | 84 | 151 | 0.0 | 0.0 | 0.00 | 0.00 | 0.00 | 80 | 1005.4 |
| 20260506181946 | 83 | 158 | 0.0 | 1.0 | 0.00 | 0.00 | 0.00 | 82 | 1005.6 |
| 20260506181832 | 83 | 158 | 0.0 | 1.0 | 0.00 | 0.00 | 0.00 | 82 | 1005.6 |
| 20260506181230 | 83 | 159 | 0.0 | 1.0 | 0.00 | 0.00 | 0.00 | 83 | 1005.7 |
| 20260506180723 | 83 | 165 | 0.0 | 0.0 | 0.00 | 0.00 | 0.00 | 82 | 1005.9 |
| 20260506180449 | 83 | 166 | 0.0 | 0.0 | 0.00 | 0.00 | 0.00 | 82 | 1005.9 |
| 20260506180333 | 83 | 166 | 0.0 | 0.0 | 0.00 | 0.00 | 0.00 | 82 | 1005.9 |
| 20260506175723 | 82 | 168 | 0.0 | 0.0 | 0.00 | 0.00 | 0.00 | 82 | 1006.0 |
| 20260506175225 | 82 | 238 | 0.0 | 0.0 | 0.00 | 0.00 | 0.00 | 84 | 1006.1 |
| 20260506174723 | 82 | 238 | 0.0 | 0.0 | 0.00 | 0.00 | 0.00 | 84 | 1006.2 |
| 20260506174225 | 82 | 238 | 0.0 | 0.0 | 0.00 | 0.00 | 0.00 | 84 | 1006.3 |
| 20260506173724 | 82 | 238 | 0.0 | 0.0 | 0.00 | 0.00 | 0.00 | 85 | 1006.4 |
| 20260506173226 | 81 | 238 | 0.0 | 0.0 | 0.00 | 0.00 | 0.00 | 85 | 1006.5 |
| 20260506172946 | 81 | 238 | 0.0 | 0.0 | 0.00 | 0.00 | 0.00 | 84 | 1006.5 |
| 20260506172833 | 81 | 238 | 0.0 | 0.0 | 0.00 | 0.00 | 0.00 | 84 | 1006.5 |
| 20260506172226 | 81 | 240 | 0.0 | 0.0 | 0.00 | 0.00 | 0.00 | 85 | 1006.5 |
| 20260506171724 | 81 | 240 | 0.0 | 0.0 | 0.00 | 0.00 | 0.00 | 84 | 1006.6 |
| 20260506171225 | 82 | 240 | 0.0 | 0.0 | 0.00 | 0.00 | 0.00 | 83 | 1006.6 |
| 20260506170724 | 82 | 251 | 0.0 | 0.0 | 0.00 | 0.00 | 0.00 | 82 | 1006.7 |
| 20260506170504 | 82 | 168 | 0.0 | 0.0 | 0.00 | 0.00 | 0.00 | 82 | 1006.6 |
| 20260506170335 | 82 | 168 | 0.0 | 0.0 | 0.00 | 0.00 | 0.00 | 82 | 1006.6 |
| 20260506165722 | 82 | 168 | 0.0 | 0.0 | 0.00 | 0.00 | 0.00 | 82 | 1006.6 |
| 20260506165247 | 82 | 166 | 0.0 | 0.0 | 0.00 | 0.00 | 0.00 | 82 | 1006.6 |
| 20260506164722 | 82 | 166 | 0.0 | 0.0 | 0.00 | 0.00 | 0.00 | 82 | 1006.5 |
| 20260506164227 | 82 | 166 | 0.0 | 0.0 | 0.00 | 0.00 | 0.00 | 82 | 1006.3 |
| 20260506163722 | 82 | 166 | 0.0 | 0.0 | 0.00 | 0.00 | 0.00 | 83 | 1006.4 |
| 20260506163445 | 81 | 166 | 0.0 | 0.0 | 0.00 | 0.00 | 0.00 | 83 | 1006.4 |
| 20260506163337 | 81 | 166 | 0.0 | 0.0 | 0.00 | 0.00 | 0.00 | 83 | 1006.4 |
| 20260506162721 | 81 | 176 | 0.0 | 0.0 | 0.00 | 0.00 | 0.00 | 84 | 1006.4 |
| 20260506162224 | 81 | 210 | 0.0 | 0.0 | 0.00 | 0.00 | 0.00 | 84 | 1006.3 |
| 20260506161721 | 81 | 210 | 0.0 | 0.0 | 0.00 | 0.00 | 0.00 | 84 | 1006.3 |
| 20260506161224 | 81 | 210 | 0.0 | 0.0 | 0.00 | 0.00 | 0.00 | 84 | 1006.2 |
| 20260506160949 | 81 | 210 | 0.0 | 0.0 | 0.00 | 0.00 | 0.00 | 84 | 1006.1 |
| 20260506160831 | 81 | 210 | 0.0 | 0.0 | 0.00 | 0.00 | 0.00 | 84 | 1006.1 |
| 20260506160238 | 81 | 210 | 0.0 | 0.0 | 0.00 | 0.00 | 0.00 | 84 | 1006.0 |
| 20260506155722 | 81 | 209 | 0.0 | 0.0 | 0.00 | 0.00 | 0.00 | 84 | 1006.1 |
| 20260506155445 | 80 | 209 | 0.0 | 0.0 | 0.00 | 0.00 | 0.00 | 84 | 1006.1 |
| 20260506155338 | 80 | 209 | 0.0 | 0.0 | 0.00 | 0.00 | 0.00 | 84 | 1006.1 |
| 20260506154724 | 80 | 212 | 0.0 | 0.0 | 0.00 | 0.00 | 0.00 | 84 | 1006.1 |
| 20260506154428 | 80 | 212 | 0.0 | 0.0 | 0.00 | 0.00 | 0.00 | 84 | 1006.0 |
| 20260506154323 | 80 | 212 | 0.0 | 0.0 | 0.00 | 0.00 | 0.00 | 84 | 1006.0 |
| 20260506153830 | 80 | 212 | 0.0 | 0.0 | 0.00 | 0.00 | 0.00 | 84 | 1006.0 |
| 20260506153225 | 80 | 212 | 0.0 | 0.0 | 0.00 | 0.00 | 0.00 | 84 | 1006.0 |
| 20260506152720 | 80 | 212 | 0.0 | 0.0 | 0.00 | 0.00 | 0.00 | 84 | 1006.0 |
| 20260506152225 | 80 | 212 | 0.0 | 0.0 | 0.00 | 0.00 | 0.00 | 84 | 1005.9 |
| 20260506151719 | 80 | 212 | 0.0 | 0.0 | 0.00 | 0.00 | 0.00 | 84 | 1005.8 |
| 20260506151225 | 80 | 212 | 0.0 | 0.0 | 0.00 | 0.00 | 0.00 | 84 | 1005.8 |
| 20260506150719 | 80 | 212 | 0.0 | 0.0 | 0.00 | 0.00 | 0.00 | 84 | 1005.7 |
| 20260506150223 | 80 | 212 | 0.0 | 0.0 | 0.00 | 0.00 | 0.00 | 84 | 1005.6 |
| 20260506145721 | 79 | 212 | 0.0 | 0.0 | 0.00 | 0.00 | 0.00 | 84 | 1005.6 |
| 20260506145224 | 79 | 212 | 0.0 | 0.0 | 0.00 | 0.00 | 0.00 | 83 | 1005.6 |
| 20260506144720 | 79 | 212 | 0.0 | 0.0 | 0.00 | 0.00 | 0.00 | 83 | 1005.6 |
| 20260506144225 | 79 | 212 | 0.0 | 0.0 | 0.00 | 0.00 | 0.00 | 82 | 1005.4 |
| 20260506143733 | 79 | 212 | 0.0 | 0.0 | 0.00 | 0.00 | 0.00 | 82 | 1005.3 |
| 20260506143452 | 78 | 212 | 0.0 | 0.0 | 0.00 | 0.00 | 0.00 | 82 | 1005.3 |
| 20260506143332 | 78 | 212 | 0.0 | 0.0 | 0.00 | 0.00 | 0.00 | 82 | 1005.3 |
| 20260506142720 | 78 | 200 | 0.0 | 0.0 | 0.00 | 0.00 | 0.00 | 81 | 1005.3 |
| 20260506142225 | 78 | 200 | 0.0 | 0.0 | 0.00 | 0.00 | 0.00 | 80 | 1005.3 |
| 20260506141718 | 78 | 200 | 0.0 | 0.0 | 0.00 | 0.00 | 0.00 | 80 | 1005.2 |
| 20260506141219 | 78 | 200 | 0.0 | 0.0 | 0.00 | 0.00 | 0.00 | 80 | 1005.2 |
| 20260506140716 | 78 | 200 | 0.0 | 0.0 | 0.00 | 0.00 | 0.00 | 78 | 1005.3 |
| 20260506140221 | 78 | 202 | 0.0 | 0.0 | 0.00 | 0.00 | 0.00 | 78 | 1005.4 |
| 20260506135719 | 78 | 202 | 0.0 | 0.0 | 0.00 | 0.00 | 0.00 | 78 | 1005.4 |
| 20260506135218 | 77 | 202 | 0.0 | 0.0 | 0.00 | 0.00 | 0.00 | 77 | 1005.5 |
| 20260506134719 | 77 | 202 | 0.0 | 0.0 | 0.00 | 0.00 | 0.00 | 77 | 1005.5 |
| 20260506134437 | 77 | 202 | 0.0 | 0.0 | 0.00 | 0.00 | 0.00 | 77 | 1005.5 |
| 20260506134325 | 77 | 202 | 0.0 | 0.0 | 0.00 | 0.00 | 0.00 | 77 | 1005.5 |
| 20260506133718 | 77 | 202 | 0.0 | 0.0 | 0.00 | 0.00 | 0.00 | 76 | 1005.5 |
| 20260506133218 | 77 | 202 | 0.0 | 0.0 | 0.00 | 0.00 | 0.00 | 75 | 1005.5 |
| 20260506132717 | 77 | 200 | 0.0 | 0.0 | 0.00 | 0.00 | 0.00 | 74 | 1005.6 |
| 20260506132217 | 77 | 214 | 0.0 | 0.0 | 0.00 | 0.00 | 0.00 | 74 | 1005.6 |
| 20260506131731 | 77 | 214 | 0.0 | 0.0 | 0.00 | 0.00 | 0.00 | 73 | 1005.6 |
| 20260506131218 | 77 | 214 | 0.0 | 0.0 | 0.00 | 0.00 | 0.00 | 73 | 1005.7 |
| 20260506130717 | 76 | 213 | 0.0 | 0.0 | 0.00 | 0.00 | 0.00 | 74 | 1005.6 |
| 20260506130217 | 76 | 213 | 0.0 | 0.0 | 0.00 | 0.00 | 0.00 | 74 | 1005.6 |
| 20260506125716 | 76 | 212 | 0.0 | 0.0 | 0.00 | 0.00 | 0.00 | 73 | 1005.5 |
| 20260506125218 | 76 | 196 | 0.0 | 0.0 | 0.00 | 0.00 | 0.00 | 73 | 1005.5 |
| 20260506124944 | 76 | 196 | 0.0 | 0.0 | 0.00 | 0.00 | 0.00 | 74 | 1005.3 |
| 20260506124819 | 76 | 196 | 0.0 | 0.0 | 0.00 | 0.00 | 0.00 | 74 | 1005.3 |
| 20260506124217 | 76 | 196 | 0.0 | 0.0 | 0.00 | 0.00 | 0.00 | 74 | 1005.4 |
| 20260506123717 | 76 | 196 | 0.0 | 0.0 | 0.00 | 0.00 | 0.00 | 74 | 1005.4 |
| 20260506123218 | 76 | 196 | 0.0 | 0.0 | 0.00 | 0.00 | 0.00 | 75 | 1005.4 |
| 20260506122938 | 76 | 196 | 0.0 | 0.0 | 0.00 | 0.00 | 0.00 | 76 | 1005.3 |
| 20260506122822 | 76 | 196 | 0.0 | 0.0 | 0.00 | 0.00 | 0.00 | 76 | 1005.3 |
| 20260506122216 | 76 | 196 | 0.0 | 0.0 | 0.00 | 0.00 | 0.00 | 76 | 1005.3 |
| 20260506121708 | 76 | 196 | 0.0 | 0.0 | 0.00 | 0.00 | 0.00 | 77 | 1005.3 |
| 20260506121208 | 76 | 196 | 0.0 | 0.0 | 0.00 | 0.00 | 0.00 | 78 | 1005.3 |
| 20260506120706 | 76 | 196 | 0.0 | 0.0 | 0.00 | 0.00 | 0.00 | 78 | 1005.3 |
| 20260506120203 | 76 | 196 | 0.0 | 0.0 | 0.00 | 0.00 | 0.00 | 79 | 1005.1 |
| 20260506115922 | 76 | 196 | 0.0 | 0.0 | 0.00 | 0.00 | 0.00 | 79 | 1005.2 |
| 20260506115810 | 76 | 196 | 0.0 | 0.0 | 0.00 | 0.00 | 0.00 | 79 | 1005.2 |
| 20260506115417 | 76 | 196 | 0.0 | 0.0 | 0.00 | 0.00 | 0.00 | 80 | 1005.1 |
| 20260506115257 | 76 | 196 | 0.0 | 0.0 | 0.00 | 0.00 | 0.00 | 80 | 1005.1 |
| 20260506114917 | 76 | 196 | 0.0 | 0.0 | 0.00 | 0.00 | 0.00 | 80 | 1005.0 |
| 20260506114754 | 76 | 196 | 0.0 | 0.0 | 0.00 | 0.00 | 0.00 | 80 | 1005.0 |
| 20260506114145 | 76 | 196 | 0.0 | 0.0 | 0.00 | 0.00 | 0.00 | 80 | 1004.9 |
| 20260506113641 | 76 | 196 | 0.0 | 0.0 | 0.00 | 0.00 | 0.00 | 80 | 1004.8 |
| 20260506113143 | 76 | 196 | 0.0 | 0.0 | 0.00 | 0.00 | 0.00 | 80 | 1004.8 |
| 20260506112636 | 76 | 196 | 0.0 | 0.0 | 0.00 | 0.00 | 0.00 | 80 | 1004.8 |
| 20260506112138 | 76 | 196 | 0.0 | 0.0 | 0.00 | 0.00 | 0.00 | 80 | 1004.7 |
| 20260506111856 | 76 | 196 | 0.0 | 0.0 | 0.00 | 0.00 | 0.00 | 80 | 1004.5 |
| 20260506111740 | 76 | 196 | 0.0 | 0.0 | 0.00 | 0.00 | 0.00 | 80 | 1004.5 |
| 20260506111133 | 76 | 196 | 0.0 | 0.0 | 0.00 | 0.00 | 0.00 | 80 | 1004.4 |
| 20260506111121 | 76 | 196 | 0.0 | 0.0 | 0.00 | 0.00 | 0.00 | 80 | 1004.2 |
| 20260506110740 | 76 | 196 | 0.0 | 0.0 | 0.00 | 0.00 | 0.00 | 80 | 1004.2 |
| 20260506110132 | 76 | 196 | 0.0 | 0.0 | 0.00 | 0.00 | 0.00 | 81 | 1004.3 |
| 20260506105628 | 76 | 196 | 0.0 | 0.0 | 0.00 | 0.00 | 0.00 | 81 | 1004.2 |
| 20260506105127 | 76 | 196 | 0.0 | 0.0 | 0.00 | 0.00 | 0.00 | 81 | 1004.2 |
| 20260506104623 | 76 | 196 | 0.0 | 0.0 | 0.00 | 0.00 | 0.00 | 82 | 1004.2 |
| 20260506104121 | 76 | 258 | 0.0 | 0.0 | 0.00 | 0.00 | 0.00 | 82 | 1004.2 |
| 20260506103618 | 76 | 258 | 0.0 | 0.0 | 0.00 | 0.00 | 0.00 | 82 | 1004.3 |
| 20260506103342 | 76 | 259 | 0.0 | 0.0 | 0.00 | 0.00 | 0.00 | 83 | 1004.2 |
| 20260506103224 | 76 | 259 | 0.0 | 0.0 | 0.00 | 0.00 | 0.00 | 83 | 1004.2 |
| 20260506102614 | 76 | 257 | 0.0 | 0.0 | 0.00 | 0.00 | 0.00 | 83 | 1004.2 |
| 20260506102115 | 76 | 244 | 0.0 | 0.0 | 0.00 | 0.00 | 0.00 | 84 | 1004.1 |
| 20260506101612 | 76 | 244 | 0.0 | 0.0 | 0.00 | 0.00 | 0.00 | 84 | 1004.2 |
| 20260506101114 | 76 | 244 | 0.0 | 0.0 | 0.00 | 0.00 | 0.00 | 84 | 1004.2 |
| 20260506100612 | 76 | 244 | 0.0 | 0.0 | 0.00 | 0.00 | 0.00 | 84 | 1004.1 |
| 20260506100347 | 76 | 244 | 0.0 | 0.0 | 0.00 | 0.00 | 0.00 | 84 | 1004.2 |
| 20260506100234 | 76 | 244 | 0.0 | 0.0 | 0.00 | 0.00 | 0.00 | 84 | 1004.2 |
| 20260506095613 | 76 | 244 | 0.0 | 0.0 | 0.00 | 0.00 | 0.00 | 84 | 1004.1 |
| 20260506095336 | 76 | 233 | 0.0 | 0.0 | 0.00 | 0.00 | 0.00 | 84 | 1004.1 |
| 20260506095222 | 76 | 233 | 0.0 | 0.0 | 0.00 | 0.00 | 0.00 | 84 | 1004.1 |
| 20260506094839 | 76 | 233 | 0.0 | 0.0 | 0.00 | 0.00 | 0.00 | 84 | 1003.9 |
| 20260506094721 | 76 | 233 | 0.0 | 0.0 | 0.00 | 0.00 | 0.00 | 84 | 1003.9 |
| 20260506094114 | 76 | 233 | 0.0 | 0.0 | 0.00 | 0.00 | 0.00 | 84 | 1003.9 |
| 20260506093611 | 77 | 233 | 0.0 | 0.0 | 0.00 | 0.00 | 0.00 | 84 | 1003.8 |
| 20260506093331 | 77 | 233 | 0.0 | 1.0 | 0.00 | 0.00 | 0.00 | 84 | 1003.8 |
| 20260506093222 | 77 | 233 | 0.0 | 1.0 | 0.00 | 0.00 | 0.00 | 84 | 1003.8 |
| 20260506092613 | 77 | 209 | 0.0 | 1.0 | 0.00 | 0.00 | 0.00 | 84 | 1003.8 |
| 20260506092115 | 77 | 224 | 0.0 | 1.0 | 0.00 | 0.00 | 0.00 | 84 | 1003.8 |
| 20260506091612 | 77 | 165 | 0.0 | 1.0 | 0.00 | 0.00 | 0.00 | 84 | 1003.8 |
| 20260506091113 | 77 | 212 | 0.0 | 0.0 | 0.00 | 0.00 | 0.00 | 84 | 1003.8 |
| 20260506090611 | 77 | 186 | 0.0 | 0.0 | 0.00 | 0.00 | 0.00 | 84 | 1003.9 |
| 20260506090126 | 77 | 231 | 0.0 | 0.0 | 0.00 | 0.00 | 0.00 | 84 | 1003.9 |
| 20260506085833 | 77 | 195 | 0.0 | 0.0 | 0.00 | 0.00 | 0.00 | 84 | 1003.9 |
| 20260506085720 | 77 | 195 | 0.0 | 0.0 | 0.00 | 0.00 | 0.00 | 84 | 1003.9 |
| 20260506085114 | 77 | 240 | 0.0 | 0.0 | 0.00 | 0.00 | 0.00 | 85 | 1003.9 |
| 20260506084612 | 77 | 252 | 0.0 | 0.0 | 0.00 | 0.00 | 0.00 | 85 | 1003.9 |
| 20260506084113 | 77 | 248 | 0.0 | 0.0 | 0.00 | 0.00 | 0.00 | 85 | 1003.8 |
| 20260506083611 | 77 | 248 | 0.0 | 0.0 | 0.00 | 0.00 | 0.00 | 85 | 1003.9 |
| 20260506083113 | 77 | 175 | 0.0 | 0.0 | 0.00 | 0.00 | 0.00 | 85 | 1004.0 |
| 20260506082611 | 77 | 212 | 0.0 | 0.0 | 0.00 | 0.00 | 0.00 | 85 | 1004.0 |
| 20260506082559 | 77 | 240 | 0.0 | 0.0 | 0.00 | 0.00 | 0.00 | 85 | 1004.1 |
| 20260506082221 | 77 | 240 | 0.0 | 0.0 | 0.00 | 0.00 | 0.00 | 85 | 1004.1 |
| 20260506081610 | 77 | 240 | 0.0 | 0.0 | 0.00 | 0.00 | 0.00 | 85 | 1004.1 |
| 20260506081344 | 77 | 241 | 0.0 | 0.0 | 0.00 | 0.00 | 0.00 | 85 | 1004.3 |
| 20260506081222 | 77 | 241 | 0.0 | 0.0 | 0.00 | 0.00 | 0.00 | 85 | 1004.3 |
| 20260506080611 | 77 | 248 | 0.0 | 0.0 | 0.00 | 0.00 | 0.00 | 85 | 1004.2 |
| 20260506080124 | 77 | 195 | 0.0 | 0.0 | 0.00 | 0.00 | 0.00 | 85 | 1004.3 |
| 20260506073109 | 77 | 237 | 0.0 | 0.0 | 0.00 | 0.00 | 0.00 | 85 | 1004.6 |
| 20260506072610 | 77 | 237 | 0.0 | 0.0 | 0.00 | 0.00 | 0.00 | 85 | 1004.7 |
| 20260506072110 | 77 | 183 | 0.0 | 0.0 | 0.00 | 0.00 | 0.00 | 85 | 1004.6 |
| 20260506071609 | 77 | 237 | 0.0 | 0.0 | 0.00 | 0.00 | 0.00 | 85 | 1004.7 |
| 20260506071111 | 77 | 190 | 0.0 | 0.0 | 0.00 | 0.00 | 0.00 | 85 | 1004.8 |
| 20260506070610 | 77 | 190 | 0.0 | 0.0 | 0.00 | 0.00 | 0.00 | 85 | 1004.8 |
| 20260506070110 | 77 | 258 | 0.0 | 4.0 | 0.00 | 0.00 | 0.00 | 85 | 1004.8 |
| 20260506062107 | 77 | 264 | 0.0 | 0.0 | 0.00 | 0.00 | 0.00 | 85 | 1004.8 |
| 20260506061609 | 77 | 237 | 0.0 | 0.0 | 0.00 | 0.00 | 0.00 | 85 | 1004.9 |
| 20260506061338 | 77 | 234 | 0.0 | 0.0 | 0.00 | 0.00 | 0.00 | 85 | 1004.9 |
| 20260506061217 | 77 | 234 | 0.0 | 0.0 | 0.00 | 0.00 | 0.00 | 85 | 1004.9 |
| 20260506060824 | 77 | 158 | 0.0 | 0.0 | 0.00 | 0.00 | 0.00 | 85 | 1005.0 |
| 20260506060714 | 77 | 158 | 0.0 | 0.0 | 0.00 | 0.00 | 0.00 | 85 | 1005.0 |
| 20260506060121 | 77 | 255 | 0.0 | 0.0 | 0.00 | 0.00 | 0.00 | 85 | 1004.9 |
| 20260506051107 | 78 | 190 | 0.0 | 0.0 | 0.00 | 0.00 | 0.00 | 85 | 1005.1 |
| 20260506050607 | 78 | 210 | 0.0 | 0.0 | 0.00 | 0.00 | 0.00 | 85 | 1005.2 |
| 20260506050331 | 78 | 282 | 0.0 | 0.0 | 0.00 | 0.00 | 0.00 | 85 | 1005.1 |
| 20260506050220 | 78 | 282 | 0.0 | 0.0 | 0.00 | 0.00 | 0.00 | 85 | 1005.1 |
| 20260506044838 | 78 | 158 | 1.0 | 4.0 | 0.00 | 0.00 | 0.00 | 85 | 1004.7 |
| 20260506044711 | 78 | 158 | 1.0 | 4.0 | 0.00 | 0.00 | 0.00 | 85 | 1004.7 |
| 20260506044326 | 78 | 244 | 0.0 | 0.0 | 0.00 | 0.00 | 0.00 | 85 | 1004.9 |
| 20260506044216 | 78 | 244 | 0.0 | 0.0 | 0.00 | 0.00 | 0.00 | 85 | 1004.9 |
| 20260506043607 | 78 | 238 | 0.0 | 0.0 | 0.00 | 0.00 | 0.00 | 85 | 1005.1 |
| 20260506043323 | 78 | 183 | 0.0 | 0.0 | 0.00 | 0.00 | 0.00 | 85 | 1005.0 |
| 20260506043216 | 78 | 183 | 0.0 | 0.0 | 0.00 | 0.00 | 0.00 | 85 | 1005.0 |
| 20260506042607 | 78 | 243 | 0.0 | 6.0 | 0.00 | 0.00 | 0.00 | 85 | 1005.1 |
| 20260506042107 | 78 | 157 | 1.0 | 6.0 | 0.00 | 0.00 | 0.00 | 85 | 1005.0 |
| 20260506041606 | 78 | 238 | 0.0 | 0.0 | 0.00 | 0.00 | 0.00 | 85 | 1004.9 |
| 20260506041107 | 78 | 210 | 0.0 | 0.0 | 0.00 | 0.00 | 0.00 | 85 | 1004.8 |
| 20260506040825 | 78 | 169 | 0.0 | 0.0 | 0.00 | 0.00 | 0.00 | 85 | 1004.9 |
| 20260506040713 | 78 | 169 | 0.0 | 0.0 | 0.00 | 0.00 | 0.00 | 85 | 1004.9 |
| 20260506040110 | 78 | 223 | 0.0 | 0.0 | 0.00 | 0.00 | 0.00 | 85 | 1004.8 |
| 20260506035606 | 78 | 158 | 0.0 | 0.0 | 0.00 | 0.00 | 0.00 | 85 | 1004.7 |
| 20260506035107 | 78 | 209 | 0.0 | 0.0 | 0.00 | 0.00 | 0.00 | 85 | 1004.6 |
| 20260506034605 | 78 | 159 | 0.0 | 6.0 | 0.00 | 0.00 | 0.00 | 84 | 1004.7 |
| 20260506034105 | 79 | 274 | 0.0 | 6.0 | 0.00 | 0.00 | 0.00 | 84 | 1004.6 |
| 20260506033604 | 79 | 210 | 0.0 | 1.0 | 0.00 | 0.00 | 0.00 | 84 | 1004.6 |
| 20260506033105 | 79 | 221 | 0.0 | 1.0 | 0.00 | 0.00 | 0.00 | 84 | 1004.6 |
| 20260506032605 | 79 | 157 | 0.0 | 0.0 | 0.00 | 0.00 | 0.00 | 84 | 1004.5 |
| 20260506032106 | 79 | 165 | 0.0 | 7.0 | 0.00 | 0.00 | 0.00 | 84 | 1004.4 |
| 20260506031604 | 79 | 168 | 1.0 | 7.0 | 0.00 | 0.00 | 0.00 | 84 | 1004.4 |
| 20260506031106 | 79 | 182 | 0.0 | 0.0 | 0.00 | 0.00 | 0.00 | 84 | 1004.4 |
| 20260506030605 | 79 | 161 | 0.0 | 0.0 | 0.00 | 0.00 | 0.00 | 83 | 1004.3 |
| 20260506030347 | 79 | 159 | 0.0 | 3.0 | 0.00 | 0.00 | 0.00 | 83 | 1004.3 |
| 20260506030229 | 79 | 159 | 0.0 | 3.0 | 0.00 | 0.00 | 0.00 | 83 | 1004.3 |
| 20260506025604 | 79 | 159 | 0.0 | 3.0 | 0.00 | 0.00 | 0.00 | 83 | 1004.2 |
| 20260506025104 | 79 | 248 | 0.0 | 5.0 | 0.00 | 0.00 | 0.00 | 83 | 1004.1 |
| 20260506024604 | 79 | 221 | 0.0 | 5.0 | 0.00 | 0.00 | 0.00 | 83 | 1004.0 |
| 20260506024106 | 79 | 231 | 0.0 | 1.0 | 0.00 | 0.00 | 0.00 | 82 | 1003.9 |
| 20260506023824 | 79 | 252 | 0.0 | 1.0 | 0.00 | 0.00 | 0.00 | 82 | 1003.7 |
| 20260506023710 | 79 | 252 | 0.0 | 1.0 | 0.00 | 0.00 | 0.00 | 82 | 1003.7 |
| 20260506023104 | 79 | 296 | 0.0 | 0.0 | 0.00 | 0.00 | 0.00 | 82 | 1003.6 |
| 20260506022603 | 79 | 233 | 0.0 | 0.0 | 0.00 | 0.00 | 0.00 | 82 | 1003.6 |
| 20260506022106 | 79 | 228 | 0.0 | 0.0 | 0.00 | 0.00 | 0.00 | 82 | 1003.6 |
| 20260506021821 | 80 | 217 | 0.0 | 0.0 | 0.00 | 0.00 | 0.00 | 81 | 1003.6 |
| 20260506021708 | 80 | 217 | 0.0 | 0.0 | 0.00 | 0.00 | 0.00 | 81 | 1003.6 |
| 20260506021549 | 80 | 268 | 0.0 | 0.0 | 0.00 | 0.00 | 0.00 | 81 | 1003.5 |
| 20260506021213 | 80 | 268 | 0.0 | 0.0 | 0.00 | 0.00 | 0.00 | 81 | 1003.5 |
| 20260506020603 | 80 | 228 | 0.0 | 0.0 | 0.00 | 0.00 | 0.00 | 81 | 1003.5 |
| 20260506020111 | 80 | 231 | 0.0 | 0.0 | 0.00 | 0.00 | 0.00 | 81 | 1003.4 |
| 20260506015604 | 80 | 254 | 0.0 | 0.0 | 0.00 | 0.00 | 0.00 | 80 | 1003.4 |
| 20260506015105 | 80 | 130 | 0.0 | 0.0 | 0.00 | 0.00 | 0.00 | 80 | 1003.4 |
| 20260506014602 | 80 | 245 | 0.0 | 1.0 | 0.00 | 0.00 | 0.00 | 79 | 1003.3 |